Olive Branch, MS

7:57 PM CDT on March 29, 2017 (GMT -0500)
Olive Branch

Weather History for KOLV - August, 2014

Change the Weather History Date:

Friday, August 1, 2014

  Actual Average (KMEM) Record (KMEM)
Temperature  
Mean Temperature 75 °F -  
Max Temperature 82 °F 90 °F 101 °F (1896)
Min Temperature 68 °F 72 °F 60 °F (1971)
Cooling Degree Days 10    
Growing Degree Days 25 (Base 50)    
Moisture  
Dew Point 69 °F    
Average Humidity 88    
Maximum Humidity 100    
Minimum Humidity 54    
Precipitation  
Precipitation 0.00 in - - ()
Sea Level Pressure  
Sea Level Pressure 30.05 in    
Wind  
Wind Speed 2 mph (NE)    
Max Wind Speed 9 mph    
Max Gust Speed -    
Visibility 8 miles    
Events      
Averages and records for this station are not official NWS values.
T = Trace of Precipitation, MM = Missing Value Source: NWS Daily Summary

Daily Weather History Graph

Daily Weather History Graph

Search for Another Location

Airport or City:

Trip Planner

Search our weather history database for the weather conditions in past years. The results will help you decide how hot, cold, wet, or windy it might be!

Date:

Astronomy

Aug. 01, 2014 Rise Set
Actual Time 6:08 AM CDT 8:01 PM CDT
Civil Twilight 5:40 AM CDT 8:29 PM CDT
Nautical Twilight 5:07 AM CDT 9:03 PM CDT
Astronomical Twilight 4:31 AM CDT 9:38 PM CDT
Moon 11:18 AM CDT (8/1) 11:01 PM CDT (8/1)
Length of Visible Light 14h 48m
Length of Day
13h 53m
Waxing Crescent, 28% of the Moon is Illuminated
Aug 1
Waxing Crescent
Aug 3
First Quarter
Aug 10
Full
Aug 17
Last Quarter
Aug 25
New

Hourly Weather History & Observations

Time (CDT) Temp. Heat Index Dew Point Humidity Pressure Visibility Wind Dir Wind Speed Gust Speed Precip Events Conditions
12:15 AM 69.8 °F - 69.8 °F 100% 30.07 in 7.0 mi Calm Calm - 0.00 in   Partly Cloudy
12:35 AM 69.8 °F - 69.8 °F 100% 30.06 in 10.0 mi Calm Calm - 0.00 in   Clear
12:55 AM 69.8 °F - 69.8 °F 100% 30.06 in 9.0 mi Calm Calm - 0.00 in   Clear
1:15 AM 69.8 °F - 69.8 °F 100% 30.05 in 10.0 mi Calm Calm - 0.00 in   Clear
1:35 AM 69.8 °F - 69.8 °F 100% 30.06 in 7.0 mi Calm Calm - N/A   Scattered Clouds
1:55 AM 69.8 °F - 69.8 °F 100% 30.06 in 7.0 mi Calm Calm - 0.00 in   Mostly Cloudy
2:15 AM 69.8 °F - 69.8 °F 100% 30.06 in 9.0 mi Calm Calm - 0.00 in   Mostly Cloudy
2:35 AM 68.0 °F - 68.0 °F 100% 30.06 in 8.0 mi Calm Calm - 0.00 in   Mostly Cloudy
2:55 AM 69.8 °F - 69.8 °F 100% 30.06 in 8.0 mi Calm Calm - 0.00 in   Mostly Cloudy
3:15 AM 69.8 °F - 69.8 °F 100% 30.05 in 8.0 mi Calm Calm - 0.00 in   Mostly Cloudy
3:35 AM 69.8 °F - 69.8 °F 100% 30.05 in 8.0 mi Calm Calm - 0.00 in   Overcast
3:55 AM 69.8 °F - 69.8 °F 100% 30.05 in 8.0 mi North 4.6 mph - 0.00 in   Mostly Cloudy
4:15 AM 68.0 °F - 68.0 °F 100% 30.05 in 8.0 mi Calm Calm - 0.00 in   Mostly Cloudy
4:35 AM 68.0 °F - 68.0 °F 100% 30.05 in 7.0 mi Calm Calm - 0.00 in   Mostly Cloudy
4:55 AM 68.0 °F - 68.0 °F 100% 30.06 in 8.0 mi Calm Calm - 0.00 in   Mostly Cloudy
5:15 AM 68.0 °F - 68.0 °F 100% 30.05 in 8.0 mi North 4.6 mph - 0.00 in   Partly Cloudy
5:35 AM 68.0 °F - 68.0 °F 100% 30.05 in 7.0 mi North 4.6 mph - 0.00 in   Clear
5:55 AM 68.0 °F - 68.0 °F 100% 30.06 in 7.0 mi North 3.5 mph - 0.00 in   Scattered Clouds
6:15 AM 68.0 °F - 68.0 °F 100% 30.07 in 5.0 mi Calm Calm - 0.00 in   Scattered Clouds
6:35 AM 68.0 °F - 68.0 °F 100% 30.07 in 7.0 mi NE 4.6 mph - 0.00 in   Scattered Clouds
6:50 AM 68.0 °F - 68.0 °F 100% 30.08 in 5.0 mi NNE 6.9 mph - N/A   Mostly Cloudy
7:50 AM 69.8 °F - 69.8 °F 100% 30.08 in 8.0 mi NE 5.8 mph - N/A   Overcast
8:50 AM 71.6 °F - 69.8 °F 94% 30.09 in 8.0 mi East 5.8 mph - N/A   Mostly Cloudy
9:50 AM 73.4 °F - 69.8 °F 88% 30.08 in 10.0 mi East 5.8 mph - N/A   Mostly Cloudy
10:50 AM 78.8 °F - 71.6 °F 78% 30.08 in 10.0 mi NE 5.8 mph - N/A   Mostly Cloudy
11:50 AM 78.8 °F - 66.2 °F 65% 30.07 in 10.0 mi ENE 5.8 mph - N/A   Mostly Cloudy
12:50 PM 80.6 °F 82.7 °F 66.2 °F 61% 30.07 in 10.0 mi ENE 5.8 mph - N/A   Mostly Cloudy
1:50 PM 82.4 °F 84.6 °F 66.2 °F 58% 30.05 in 10.0 mi NE 9.2 mph - N/A   Mostly Cloudy
3:50 PM 82.4 °F 83.9 °F 64.4 °F 54% 30.03 in 10.0 mi ESE 5.8 mph - N/A   Mostly Cloudy
5:50 PM 80.6 °F 82.3 °F 64.4 °F 58% 30.02 in 10.0 mi East 4.6 mph - N/A   Mostly Cloudy
6:50 PM 80.6 °F 82.3 °F 64.4 °F 58% 30.01 in 10.0 mi East 4.6 mph - N/A   Scattered Clouds
7:50 PM 78.8 °F - 66.2 °F 65% 30.02 in 10.0 mi ENE 3.5 mph - N/A   Scattered Clouds
8:55 PM 77.0 °F - 66.2 °F 69% 30.02 in 8.0 mi Calm Calm - N/A   Overcast
9:15 PM 77.0 °F - 68.0 °F 74% 30.03 in 8.0 mi Calm Calm - 0.00 in   Overcast
9:35 PM 75.2 °F - 69.8 °F 83% 30.03 in 8.0 mi Calm Calm - 0.00 in   Overcast
9:55 PM 75.2 °F - 69.8 °F 83% 30.03 in 9.0 mi Calm Calm - 0.00 in   Overcast
10:15 PM 75.2 °F - 68.0 °F 78% 30.03 in 8.0 mi Calm Calm - 0.00 in   Overcast
10:35 PM 75.2 °F - 69.8 °F 83% 30.04 in 10.0 mi NE 4.6 mph - 0.00 in   Mostly Cloudy
10:55 PM 75.2 °F - 69.8 °F 83% 30.04 in 8.0 mi NE 3.5 mph - 0.00 in   Clear
11:15 PM 73.4 °F - 69.8 °F 88% 30.04 in 8.0 mi NE 3.5 mph - 0.00 in   Partly Cloudy
11:35 PM 73.4 °F - 69.8 °F 88% 30.04 in 10.0 mi Calm Calm - 0.00 in   Partly Cloudy
11:55 PM 73.4 °F - 69.8 °F 88% 30.04 in 5.0 mi Calm Calm - N/A   Scattered Clouds